Simultaneous Nadir Overpasses (SNOs) Predictions

Prediction of SNOs between METOP-B and TERRA Satellite Orbit:

Table of predicted SNOs for the next 14.0 days since TLE Epoch: 8/8/2015
Index Date (METOP-B) Time (METOP-B) Lat,Lon (METOP-B) SZA (METOP-B ) Date (TERRA) Time (TERRA) Lat,Lon (TERRA) SZA (TERRA ) Distance(km) Time Diff (sec)
1 08/10/2015 13:16:59 81.31, 28.25 68.51 08/10/2015 13:17:28 81.31, 28.15 68.51 1.68 29
2 08/10/2015 14:07:39 -81.32,-163.98 111.43 08/10/2015 14:06:54 -81.33,-163.90 111.44 1.59 45
3 08/13/2015 08:51:20 81.31, 94.36 69.32 08/13/2015 08:51:41 81.31, 94.50 69.34 2.40 21
4 08/13/2015 09:41:59 -81.32, -97.44 110.57 08/13/2015 09:41:07 -81.32, -97.53 110.60 1.50 52
5 08/16/2015 04:25:40 81.32, 161.23 70.25 08/16/2015 04:25:54 81.32, 161.16 70.25 1.21 14
6 08/1
